Location: El Centro
(32.7920°N, 115.5620°W)
Time: 20:32:29
(UTC-07:00)

Amateur Radio Satellites - All Passes

Search period start: 24 June 2017 20:02
Search period end: 25 June 2017 20:02
Location: El Centro, 32.7920°N, 115.5620°W

Satellite Date Start Highest point End Downlink Frequencies (MHz)
Time Altitude Azimuth
BEESAT 3 24 Jun 20:03:50 20:06:37 19° 110° (ESE) 20:09:25 437.485
Oscar 11 24 Jun 20:12:43 20:16:31 30° 73° (ENE) 20:20:19 .
STRAND 1 24 Jun 20:14:54 20:20:05 83° 283° (WNW) 20:25:12 437.568
NO-84 24 Jun 20:15:52 20:16:27 10° 118° (ESE) 20:17:03 435.350 FM
ZACube-1 24 Jun 20:18:02 20:22:25 54° 75° (ENE) 20:26:54 437.345
SRMSAT 24 Jun 20:19:08 20:22:44 17° 192° (SSW) 20:26:20 437.500
UWE-3 24 Jun 20:20:49 20:25:20 74° 259° (W) 20:29:59 435.000/436.395/437.385
AAUSAT CUBESAT 2 24 Jun 20:22:48 20:26:53 65° 259° (W) 20:30:59 437.432
O/OREOS (USA 219) 24 Jun 20:32:38 20:35:10 15° 99° (E) 20:37:42 437.305
RS-15 24 Jun 20:44:52 20:56:45 71° 113° (ESE) 21:09:01 29.354- 29.394
BEESAT 2 24 Jun 20:59:59 21:03:21 27° 111° (ESE) 21:06:47 435.950
PCSat 24 Jun 21:07:33 21:12:16 29° 57° (ENE) 21:16:56 145.827
AO-85 24 Jun 21:08:07 21:11:54 34° 302° (WNW) 21:15:33 145.980
HO-68 24 Jun 21:08:18 21:11:52 14° 268° (W) 21:15:27 435.675
YUBILEINY 24 Jun 21:09:06 21:16:32 32° 85° (E) 21:23:58 435.215
FO-29 24 Jun 21:14:43 21:20:36 23° 92° (E) 21:26:21 435.910
AO-73 24 Jun 21:20:10 21:24:08 31° 263° (W) 21:28:10 145.935
EO-88 24 Jun 21:35:18 21:38:48 44° 75° (ENE) 21:42:19 145.990 - 145.960
BEESAT 3 24 Jun 21:40:33 21:43:57 27° 304° (NW) 21:47:25 437.485
NO-84 24 Jun 21:49:38 21:53:24 61° 313° (NW) 21:57:29 435.350 FM
Oscar 11 24 Jun 21:49:41 21:52:38 18° 265° (W) 21:55:36 .
DELFI C3 24 Jun 21:57:35 22:01:25 54° 260° (W) 22:05:16 145.870
ZACube-1 24 Jun 21:57:52 21:58:58 11° 269° (W) 22:00:04 437.345
M-CUBED/EXP-1 PRIME 24 Jun 21:59:01 22:02:40 43° 105° (ESE) 22:06:35 437.505
TIGRISAT 24 Jun 22:04:17 22:08:18 29° 97° (E) 22:12:13 435.000
O/OREOS (USA 219) 24 Jun 22:09:55 22:14:11 39° 293° (WNW) 22:18:26 437.305
PRISM 24 Jun 22:11:40 22:15:28 36° 99° (E) 22:19:16 437.425
ESTCUBE 1 24 Jun 22:25:08 22:27:39 15° 68° (ENE) 22:30:12 437.505/2401.250
SO-50 24 Jun 22:29:11 22:31:02 12° 48° (NE) 22:32:54 436.795
BEESAT 2 24 Jun 22:38:07 22:41:04 20° 307° (NW) 22:44:03 435.950
UNISAT 6 24 Jun 22:45:39 22:50:18 83° 283° (WNW) 22:54:50 437.425
PCSat 24 Jun 22:50:51 22:55:34 31° 252° (WSW) 23:00:15 145.827
FO-29 24 Jun 22:58:10 23:05:56 65° 287° (WNW) 23:13:31 435.910
RS-15 24 Jun 22:59:32 23:10:12 34° 314° (NW) 23:21:06 29.354- 29.394
YUBILEINY 24 Jun 23:04:36 23:12:54 46° 282° (WNW) 23:21:19 435.215
AIST 2D 24 Jun 23:07:35 23:09:33 14° 94° (E) 23:11:32 435.315
NO-84 24 Jun 23:31:30 23:31:47 10° 331° (NNW) 23:32:05 435.350 FM
LO-87 24 Jun 23:34:16 23:37:32 35° 262° (W) 23:40:50 145.935 - 145.965
M-CUBED/EXP-1 PRIME 24 Jun 23:35:35 23:36:48 11° 295° (WNW) 23:38:03 437.505
TIGRISAT 24 Jun 23:41:13 23:44:45 22° 291° (WNW) 23:48:13 435.000
POLYITAN 1 24 Jun 23:44:07 23:47:24 21° 96° (E) 23:50:39 437.675
PRISM 24 Jun 23:48:15 23:50:23 14° 292° (WNW) 23:52:31 437.425
QB50P2 24 Jun 23:54:27 23:58:16 31° 98° (E) 00:02:03 145.880/145.840
ESTCUBE 1 24 Jun 23:59:50 00:04:04 41° 261° (W) 00:08:20 437.505/2401.250
VELOX 1 25 Jun 00:04:37 00:08:46 45° 74° (ENE) 00:12:57 145.980
SO-50 25 Jun 00:07:24 00:11:54 67° 244° (WSW) 00:16:26 436.795
EO-79 25 Jun 00:18:54 00:23:08 58° 101° (E) 00:27:19 145.935-145.965
DX 1 25 Jun 00:27:17 00:30:48 25° 70° (ENE) 00:34:18 434.975-435.025
SPROUT 25 Jun 00:31:04 00:35:19 77° 258° (WSW) 00:39:36 437.525
DUCHIFAT 1 25 Jun 00:33:46 00:38:01 71° 102° (ESE) 00:42:13 145.980
AIST 2D 25 Jun 00:39:56 00:42:42 22° 287° (WNW) 00:45:27 435.315
NANOSAT C BR1 25 Jun 00:41:53 00:46:09 79° 282° (WNW) 00:50:22 145.865
UKube-1 25 Jun 00:45:47 00:49:23 26° 71° (ENE) 00:52:58 .
FO-29 25 Jun 00:47:49 00:49:27 11° 303° (WNW) 00:51:04 435.910
50 SAT 25 Jun 01:00:23 01:03:44 74° 258° (WSW) 01:07:06 437.505
Oscar 19 25 Jun 01:10:37 01:14:06 18° 95° (E) 01:17:32 437.125/150
POLYITAN 1 25 Jun 01:19:35 01:23:04 25° 289° (WNW) 01:26:32 437.675
RS-15 25 Jun 01:24:20 01:28:26 12° 347° (NNW) 01:32:31 29.354- 29.394
QB50P2 25 Jun 01:30:58 01:33:46 17° 291° (WNW) 01:36:32 145.880/145.840
VELOX 1 25 Jun 01:43:41 01:45:23 12° 267° (W) 01:47:06 145.980
BUGSAT 1 25 Jun 01:46:41 01:50:50 53° 285° (WNW) 01:54:55 437.445
ITUPSAT 1 25 Jun 01:48:25 01:50:11 12° 65° (ENE) 01:51:57 437.325
Gurwin Techsat 1B 25 Jun 01:57:36 02:02:25 34° 98° (E) 02:07:13 435.225
BEESAT 25 Jun 01:57:41 02:00:31 16° 67° (ENE) 02:03:20 436.000
DX 1 25 Jun 02:03:31 02:06:52 22° 264° (W) 02:10:13 434.975-435.025
UKube-1 25 Jun 02:22:09 02:25:19 20° 264° (W) 02:28:30 .
AO-7 25 Jun 02:29:50 02:31:24 11° 91° (E) 02:32:57 .
Oscar 19 25 Jun 02:48:44 02:53:30 41° 288° (WNW) 02:58:17 437.125/150
MOZHAYETS 4 25 Jun 03:09:13 03:13:45 58° 75° (ENE) 03:18:19
ITUPSAT 1 25 Jun 03:22:41 03:27:25 60° 259° (WSW) 03:32:12 437.325
ITAMSAT 1 25 Jun 03:25:04 03:29:32 28° 97° (E) 03:33:58 435.822/435.867
BEESAT 25 Jun 03:33:19 03:37:52 44° 260° (W) 03:42:27 436.000
Gurwin Techsat 1B 25 Jun 03:37:56 03:42:07 24° 292° (WNW) 03:46:19 435.225
RS-15 25 Jun 03:41:58 03:48:59 16° 26° (NNE) 03:55:49 29.354- 29.394
CUBESAT XI-V 25 Jun 03:49:24 03:53:15 26° 71° (ENE) 03:57:05 437.345
AO-7 25 Jun 04:16:44 04:25:08 77° 106° (ESE) 04:33:30 .
NO-84 25 Jun 04:27:52 04:30:42 17° 35° (NE) 04:33:29 435.350 FM
KKS-1 25 Jun 04:46:58 04:51:23 84° 75° (ENE) 04:55:49 437.445
MOZHAYETS 4 25 Jun 04:50:23 04:51:11 10° 268° (W) 04:51:59
DOVE 4 25 Jun 04:58:16 04:58:58 10° 92° (E) 04:59:41 437.250
ITAMSAT 1 25 Jun 05:04:27 05:08:52 28° 291° (WNW) 05:13:16 435.822/435.867
STARS 25 Jun 05:18:11 05:22:32 77° 77° (ENE) 05:26:56 437.465
CUBESAT XI-V 25 Jun 05:26:47 05:30:30 24° 264° (W) 05:34:14 437.345
AO-85 25 Jun 05:42:21 05:46:24 47° 60° (ENE) 05:50:43 145.980
RS-15 25 Jun 05:53:21 06:05:10 55° 55° (NE) 06:16:19 29.354- 29.394
BEESAT 3 25 Jun 06:00:49 06:04:34 38° 58° (ENE) 06:08:15 437.485
NO-84 25 Jun 06:04:23 06:08:43 69° 231° (SW) 06:12:49 435.350 FM
CUTE-I 25 Jun 06:04:32 06:08:36 22° 95° (E) 06:12:37 437.470
AO-7 25 Jun 06:11:13 06:16:59 21° 302° (WNW) 06:22:45 .
NUDT-PHONESAT 25 Jun 06:27:21 06:30:36 29° 97° (E) 06:33:50 437.300
DOVE 4 25 Jun 06:31:57 06:36:54 70° 284° (WNW) 06:42:04 437.250
XW-2F 25 Jun 06:41:04 06:44:47 63° 100° (E) 06:48:28 145.980 - 146.000
XW-2D 25 Jun 06:44:42 06:48:28 79° 102° (ESE) 06:52:11 145.860 - 145.880
O/OREOS (USA 219) 25 Jun 06:46:23 06:48:52 15° 61° (ENE) 06:51:20 437.305
HO-68 25 Jun 06:50:45 06:55:34 19° 94° (E) 07:00:20 435.675
LilacSat-2 25 Jun 06:52:25 06:56:12 78° 281° (W) 06:59:56 437.200
XW-2B 25 Jun 06:53:42 06:57:27 81° 282° (WNW) 07:01:11 145.730 - 145.750
BEESAT 2 25 Jun 06:58:31 07:02:31 59° 60° (ENE) 07:06:28 435.950
Tancredo 1 25 Jun 06:59:33 07:02:07 26° 130° (SE) 07:04:44 437.200
XW-2C 25 Jun 07:09:17 07:12:54 46° 285° (WNW) 07:16:29 145.795 - 145.815
ISS 25 Jun 07:14:04 07:16:19 17° 128° (SE) 07:18:35 437.550
SEEDS 25 Jun 07:18:35 07:20:42 14° 94° (E) 07:22:48 437.485
AO-85 25 Jun 07:24:36 07:26:27 12° 251° (WSW) 07:28:21 145.980
KAITUO 1B 25 Jun 07:24:38 07:28:04 37° 286° (WNW) 07:31:29 145.475/437.950
XW-2A 25 Jun 07:24:44 07:26:55 16° 95° (E) 07:29:05 145.665 - 145.685
STRAND 1 25 Jun 07:26:07 07:31:15 88° 77° (ENE) 07:36:25 437.568
YUBILEINY 25 Jun 07:28:28 07:30:16 11° 64° (ENE) 07:32:04 435.215
CUTE 1.7 + AOD 2 25 Jun 07:33:43 07:37:35 36° 98° (E) 07:41:27 437.475
BEESAT 3 25 Jun 07:39:55 07:41:44 13° 252° (WSW) 07:43:32 437.485
CUBEBUG 2 25 Jun 07:41:09 07:44:50 23° 95° (E) 07:48:26 437.445
CUTE-I 25 Jun 07:43:44 07:48:40 38° 289° (WNW) 07:53:36 437.470
NUDT-PHONESAT 25 Jun 08:02:26 08:04:11 13° 291° (WNW) 08:05:56 437.300
RS-15 25 Jun 08:06:33 08:17:04 39° 255° (WSW) 08:27:09 29.354- 29.394
AAUSAT CUBESAT 2 25 Jun 08:09:36 08:13:01 25° 97° (E) 08:16:26 437.432
ZACube-1 25 Jun 08:12:23 08:14:52 15° 93° (E) 08:17:19 437.345
UWE-3 25 Jun 08:15:20 08:19:24 31° 97° (E) 08:23:21 435.000/436.395/437.385
O/OREOS (USA 219) 25 Jun 08:24:14 08:28:26 42° 255° (WSW) 08:32:38 437.305
Tancredo 1 25 Jun 08:35:26 08:37:42 19° 324° (NW) 08:39:59 437.200
HO-68 25 Jun 08:36:36 08:43:40 65° 288° (WNW) 08:50:43 435.675
M-CUBED/EXP-1 PRIME 25 Jun 08:42:08 08:44:43 21° 68° (ENE) 08:47:15 437.505
ISS 25 Jun 08:49:40 08:52:36 31° 321° (NW) 08:55:34 437.550
SEEDS 25 Jun 08:52:40 08:56:28 35° 286° (WNW) 09:00:15 437.485
XW-2A 25 Jun 08:57:05 08:59:32 19° 288° (WNW) 09:01:59 145.665 - 145.685
PRISM 25 Jun 08:57:57 09:00:11 15° 68° (ENE) 09:02:25 437.425
TIGRISAT 25 Jun 08:59:26 09:02:10 16° 67° (ENE) 09:04:55 435.000
FO-29 25 Jun 09:05:51 09:11:10 36° 68° (ENE) 09:17:06 435.910
CUTE 1.7 + AOD 2 25 Jun 09:10:48 09:13:04 14° 291° (WNW) 09:15:20 437.475
AO-73 25 Jun 09:12:02 09:16:27 72° 101° (E) 09:20:44 145.935
CUBEBUG 2 25 Jun 09:17:24 09:21:21 28° 289° (WNW) 09:25:13 437.445
YUBILEINY 25 Jun 09:19:44 09:28:35 73° 83° (E) 09:37:20 435.215
DELFI C3 25 Jun 09:39:12 09:42:26 24° 97° (E) 09:45:38 145.870
UNISAT 6 25 Jun 09:39:31 09:43:53 49° 74° (ENE) 09:48:23 437.425
Oscar 11 25 Jun 09:39:36 09:43:53 69° 284° (WNW) 09:48:08 .
AAUSAT CUBESAT 2 25 Jun 09:45:20 09:48:15 19° 290° (WNW) 09:51:12 437.432
ZACube-1 25 Jun 09:47:10 09:51:15 37° 287° (WNW) 09:55:14 437.345
UWE-3 25 Jun 09:52:21 09:55:33 19° 291° (WNW) 09:58:42 435.000/436.395/437.385
M-CUBED/EXP-1 PRIME 25 Jun 10:17:21 10:19:08 14° 259° (W) 10:20:52 437.505
PRISM 25 Jun 10:31:28 10:35:08 33° 261° (W) 10:38:49 437.425
TIGRISAT 25 Jun 10:34:08 10:38:25 41° 262° (W) 10:42:49 435.000
EO-88 25 Jun 10:41:39 10:45:17 70° 283° (WNW) 10:48:53 145.990 - 145.960
QB50P2 25 Jun 10:44:00 10:46:13 14° 68° (ENE) 10:48:27 145.880/145.840
FO-29 25 Jun 10:51:15 10:56:14 29° 266° (W) 11:01:46 435.910
LO-87 25 Jun 11:05:39 11:08:32 22° 96° (E) 11:11:24 145.935 - 145.965
EO-79 25 Jun 11:07:15 11:10:40 24° 71° (ENE) 11:14:06 145.935-145.965
AIST 2D 25 Jun 11:08:51 11:12:20 56° 76° (ENE) 11:15:49 435.315
DELFI C3 25 Jun 11:14:15 11:17:00 18° 289° (WNW) 11:19:45 145.870
YUBILEINY 25 Jun 11:18:46 11:24:21 19° 279° (W) 11:29:56 435.215
UNISAT 6 25 Jun 11:18:54 11:20:49 12° 268° (W) 11:22:46 437.425
DUCHIFAT 1 25 Jun 11:21:16 11:24:52 28° 72° (ENE) 11:28:29 145.980
NANOSAT C BR1 25 Jun 11:29:17 11:33:14 40° 74° (ENE) 11:37:13 145.865
PCSat 25 Jun 11:44:00 11:49:20 65° 112° (ESE) 11:54:43 145.827
ESTCUBE 1 25 Jun 11:56:18 12:00:42 57° 100° (E) 12:05:06 437.505/2401.250
VELOX 1 25 Jun 12:00:52 12:02:38 12° 93° (E) 12:04:23 145.980
POLYITAN 1 25 Jun 12:06:33 12:10:44 60° 259° (W) 12:14:59 437.675
QB50P2 25 Jun 12:17:39 12:21:37 39° 261° (W) 12:25:38 145.880/145.840
SPROUT 25 Jun 12:21:35 12:25:07 24° 96° (E) 12:28:38 437.525
Oscar 19 25 Jun 12:23:33 12:26:56 18° 67° (ENE) 12:30:21 437.125/150
BUGSAT 1 25 Jun 12:31:27 12:35:27 54° 75° (ENE) 12:39:32 437.445
LO-87 25 Jun 12:39:22 12:41:45 17° 289° (WNW) 12:44:09 145.935 - 145.965
EO-79 25 Jun 12:43:02 12:46:18 22° 264° (W) 12:49:36 145.935-145.965
JUGNU 25 Jun 12:55:28 12:59:25 18° 169° (S) 13:03:24 437.505
DUCHIFAT 1 25 Jun 12:57:33 13:00:29 18° 265° (W) 13:03:27 145.980
NANOSAT C BR1 25 Jun 13:07:09 13:09:04 13° 267° (W) 13:10:58 145.865
Gurwin Techsat 1B 25 Jun 13:14:20 13:19:08 36° 71° (ENE) 13:23:56 435.225
AO-7 25 Jun 13:24:20 13:27:24 13° 52° (NE) 13:30:30 .
PCSat 25 Jun 13:29:59 13:33:10 16° 309° (NW) 13:36:23 145.827
VELOX 1 25 Jun 13:35:00 13:39:15 46° 286° (WNW) 13:43:29 145.980
ESTCUBE 1 25 Jun 13:35:49 13:36:58 11° 294° (WNW) 13:38:06 437.505/2401.250
DX 1 25 Jun 13:54:42 13:59:05 87° 99° (E) 14:03:28 434.975-435.025
SPROUT 25 Jun 13:57:32 14:00:51 22° 290° (WNW) 14:04:09 437.525
50 SAT 25 Jun 13:59:43 14:02:52 36° 286° (WNW) 14:06:01 437.505
Oscar 19 25 Jun 14:00:58 14:05:52 44° 261° (W) 14:10:48 437.125/150
UKube-1 25 Jun 14:12:01 14:16:21 89° 295° (WNW) 14:20:40 .
SO-50 25 Jun 14:17:03 14:21:37 72° 299° (WNW) 14:26:09 436.795
ITAMSAT 1 25 Jun 14:38:49 14:43:11 28° 69° (ENE) 14:47:35 435.822/435.867
SRMSAT 25 Jun 14:41:23 14:44:08 13° 164° (SSE) 14:46:52 437.500
JUGNU 25 Jun 14:43:12 14:47:50 23° 179° (S) 14:52:28 437.505
Gurwin Techsat 1B 25 Jun 14:54:59 14:59:04 23° 264° (W) 15:03:11 435.225
Tancredo 1 25 Jun 15:02:11 15:05:07 43° 41° (NE) 15:08:02 437.200
MOZHAYETS 4 25 Jun 15:09:37 15:12:50 19° 95° (E) 15:16:02
AO-7 25 Jun 15:10:26 15:18:40 71° 70° (ENE) 15:26:58 .
ISS 25 Jun 15:20:43 15:23:44 32° 39° (NE) 15:26:44 437.550
ITUPSAT 1 25 Jun 15:27:35 15:32:14 48° 100° (E) 15:36:49 437.325
BEESAT 25 Jun 15:37:30 15:42:15 65° 102° (ESE) 15:46:58 436.000
ITAMSAT 1 25 Jun 16:18:07 16:22:31 28° 263° (W) 16:26:58 435.822/435.867
SRMSAT 25 Jun 16:28:14 16:32:39 21° 174° (S) 16:37:03 437.500
JUGNU 25 Jun 16:32:05 16:36:15 19° 189° (S) 16:40:25 437.505
Tancredo 1 25 Jun 16:39:54 16:40:21 10° 234° (SW) 16:40:49 437.200
KKS-1 25 Jun 16:42:53 16:46:24 22° 96° (E) 16:49:55 437.445
MOZHAYETS 4 25 Jun 16:45:57 16:49:59 32° 288° (WNW) 16:54:01
ISS 25 Jun 16:57:47 17:00:00 17° 233° (SW) 17:02:13 437.550
AO-7 25 Jun 17:06:11 17:11:56 20° 265° (W) 17:17:43 .
ITUPSAT 1 25 Jun 17:07:01 17:09:35 15° 294° (WNW) 17:12:08 437.325
STARS 25 Jun 17:12:44 17:15:56 19° 96° (E) 17:19:08 437.465
BEESAT 25 Jun 17:18:13 17:19:24 11° 296° (WNW) 17:20:36 436.000
XW-2F 25 Jun 17:18:36 17:20:59 16° 70° (ENE) 17:23:22 145.980 - 146.000
CUTE-I 25 Jun 17:22:10 17:26:17 23° 68° (ENE) 17:30:27 437.470
XW-2D 25 Jun 17:22:11 17:24:58 19° 71° (ENE) 17:27:46 145.860 - 145.880
CUBESAT XI-V 25 Jun 17:26:32 17:31:06 69° 284° (WNW) 17:35:40 437.345
LilacSat-2 25 Jun 17:30:04 17:33:17 25° 72° (ENE) 17:36:30 437.200
XW-2B 25 Jun 17:30:49 17:33:56 24° 72° (ENE) 17:37:03 145.730 - 145.750
DOVE 4 25 Jun 17:33:25 17:37:31 69° 76° (ENE) 17:41:43 437.250
XW-2C 25 Jun 17:45:46 17:49:21 38° 74° (ENE) 17:52:56 145.795 - 145.815
KAITUO 1B 25 Jun 17:59:39 18:03:16 44° 75° (ENE) 18:06:53 145.475/437.950
SRMSAT 25 Jun 18:16:42 18:21:13 22° 184° (S) 18:25:43 437.500
KKS-1 25 Jun 18:19:09 18:22:51 26° 290° (WNW) 18:26:34 437.445
CUTE 1.7 + AOD 2 25 Jun 18:23:07 18:25:37 15° 69° (ENE) 18:28:07 437.475
JUGNU 25 Jun 18:23:46 18:24:36 10° 198° (SSW) 18:25:25 437.505
NUDT-PHONESAT 25 Jun 18:35:06 18:38:48 56° 260° (W) 18:42:30 437.300
CUBEBUG 2 25 Jun 18:36:31 18:38:10 12° 66° (ENE) 18:39:49 437.445
STARS 25 Jun 18:48:24 18:52:14 29° 289° (WNW) 18:56:04 437.465
XW-2F 25 Jun 18:51:38 18:54:51 26° 263° (W) 18:58:07 145.980 - 146.000
XW-2D 25 Jun 18:56:00 18:58:59 21° 264° (W) 19:01:58 145.860 - 145.880
HO-68 25 Jun 18:59:39 19:06:42 61° 71° (ENE) 19:13:47 435.675
CUTE-I 25 Jun 19:01:15 19:06:04 35° 262° (W) 19:10:57 437.470
LilacSat-2 25 Jun 19:05:00 19:07:30 16° 265° (W) 19:10:00 437.200
XW-2B 25 Jun 19:05:28 19:08:02 17° 265° (W) 19:10:37 145.730 - 145.750
UWE-3 25 Jun 19:08:38 19:11:26 16° 68° (ENE) 19:14:16 435.000/436.395/437.385
XW-2A 25 Jun 19:22:45 19:26:07 59° 76° (ENE) 19:29:32 145.665 - 145.685
XW-2C 25 Jun 19:22:53 19:23:39 10° 267° (W) 19:24:26 145.795 - 145.815
SEEDS 25 Jun 19:39:02 19:43:14 82° 77° (ENE) 19:47:26 437.485
STRAND 1 25 Jun 19:41:18 19:46:12 43° 99° (E) 19:51:03 437.568
BEESAT 3 25 Jun 19:47:02 19:49:48 18° 110° (ESE) 19:52:36 437.485
AO-85 25 Jun 19:52:49 19:56:48 43° 115° (ESE) 20:00:36 145.980
